User: anonymous   Login
Location: New Town
(33.2710°N, 90.7534°W)
Time: 01:48:47
(UTC+00:00)
Language:

Transit 2A Rocket - Orbit

View from above orbital plane
View from above orbital plane
View from above satellite
View from above satellite

Ground track
Ground track

The orbit data is extracted from the following two-line orbital elements,

1 00047U 60007C   21131.04417463 -.00000009  00000-0  22982-4 0  9998
2 00047  66.6673 359.0417 0220820  62.6704 299.6690 14.42149816181916
Epoch (UTC): 11 May 2021 01:03:36
Eccentricity: 0.0220820
inclination: 66.6673°
perigee height: 594 km
apogee height: 909 km
right ascension of ascending node: 359.0417°
argument of perigee: 62.6704°
revolutions per day: 14.42149816
mean anomaly at epoch: 299.6690°
orbit number at epoch: 18191

The dashed part of the orbit path shows where the satellite is in the earth's shadow,  

DLR